Location: Alexandria
(38.8050°N, 77.0470°W)
Time: 03:47:24
(UTC-04:00)

Vanguard 1 Rocket - Visible Passes

Search period start: 28 May 2018 00:00
Search period end: 07 June 2018 00:00
Orbit: 652 x 4225 km, 34.3° (Epoch: 27 May)

Date Brightness Start Highest point End Pass type
(mag) Time Alt. Az. Time Alt. Az. Time Alt. Az.
28 May 10.0 00:53:39 10° WSW 01:09:22 77° S 01:35:19 10° E visible
28 May 10.5 03:20:50 10° W 03:41:51 70° SSW 04:07:31 10° ESE visible
28 May 9.6 21:19:53 10° SSW 21:28:41 35° SE 21:44:01 10° E visible
28 May 9.7 23:42:34 10° WSW 23:55:33 70° SSE 00:19:21 10° E visible
29 May 10.2 02:08:29 10° W 02:26:47 76° S 02:53:16 10° ESE visible
29 May 10.7 04:36:58 10° W 04:59:06 55° SSW 05:22:37 10° SE visible
29 May 9.5 22:32:07 10° SW 22:42:47 58° SSE 23:03:07 10° E visible
30 May 10.0 00:56:46 10° W 01:12:09 77° S 01:37:58 10° E visible
30 May 10.5 03:23:53 10° W 03:44:19 65° SSW 04:09:50 10° SE visible
30 May 9.4 21:22:24 10° SSW 21:31:04 42° SE 21:46:56 10° E visible
30 May 9.7 23:45:39 10° WSW 23:58:20 74° S 00:21:58 10° E visible
31 May 10.2 02:11:36 10° W 02:29:26 73° SSW 02:55:45 10° ESE visible
31 May 10.7 04:40:07 10° W 05:01:15 48° SW 05:24:23 10° SSE visible
31 May 9.4 22:35:06 10° WSW 22:45:28 64° SSE 23:05:46 10° E visible
01 Jun 9.9 00:59:56 10° W 01:14:58 76° S 01:40:32 10° ESE visible
01 Jun 10.5 03:26:59 10° W 03:46:43 59° SSW 04:11:54 10° SE visible
01 Jun 9.2 21:25:08 10° SW 21:33:36 48° SSE 21:49:44 10° E visible
01 Jun 9.6 23:48:48 10° WSW 00:01:11 75° S 00:24:35 10° E visible
02 Jun 10.2 02:14:44 10° W 02:32:05 68° SSW 02:58:03 10° ESE visible
02 Jun 10.8 04:43:26 10° W 05:03:23 41° SW 05:25:47 10° SSE visible
02 Jun 9.3 22:38:10 10° WSW 22:48:18 69° SSE 23:08:24 10° E visible
03 Jun 9.9 01:03:07 10° W 01:17:47 74° S 01:43:01 10° ESE visible
03 Jun 10.5 03:30:11 10° W 03:49:05 52° SSW 04:13:42 10° SE visible
03 Jun 9.0 21:28:02 10° SW 21:36:18 55° SSE 21:52:28 10° E visible
03 Jun 9.6 23:52:00 10° W 00:04:06 76° S 00:27:09 10° E visible
04 Jun 10.2 02:17:54 10° W 02:34:42 62° SSW 03:00:09 10° SE visible
04 Jun 10.9 04:47:00 10° W 05:05:31 34° SW 05:26:44 10° SSE visible
04 Jun 9.2 22:41:20 10° WSW 22:51:12 72° S 23:11:02 10° E visible
05 Jun 9.9 01:06:19 10° W 01:20:35 70° SSW 01:45:21 10° ESE visible
05 Jun 10.5 03:33:29 10° W 03:51:27 45° SSW 04:15:09 10° SSE visible
05 Jun 8.9 21:31:05 10° WSW 21:39:08 61° SSE 21:55:11 10° E visible
05 Jun 9.5 23:55:14 10° W 00:07:02 74° S 00:29:40 10° ESE visible
06 Jun 10.2 02:21:08 10° W 02:37:18 56° SSW 03:01:59 10° SE visible
06 Jun 10.9 04:50:59 10° W 05:07:43 28° SW 05:27:05 10° S visible
06 Jun 9.2 22:44:32 10° WSW 22:54:11 73° S 23:13:39 10° E visible
